Location: Newark
(36.0797°N, 3.9744°E)
Time: 20:33:07
(UTC+00:00)

Altair - All Passes

Search period start: 11 December 2019 00:00
Search period end: 21 December 2019 00:00
Orbit: 1502 x 1682 km, 47.2° (Epoch: 10 December)

Date Brightness Start Highest point End Pass type
(mag) Time Alt. Az. Time Alt. Az. Time Alt. Az.
11 Dec - 01:04:22 10° WNW 01:13:20 50° NNE 01:22:11 10° E visible
11 Dec - 03:09:19 10° WNW 03:18:28 75° SW 03:27:40 10° SE visible
11 Dec - 05:15:57 10° W 05:22:01 20° SW 05:28:10 10° SSW visible
11 Dec - 18:23:12 10° SSW 18:31:42 35° SE 18:39:56 10° ENE visible
11 Dec - 20:26:12 10° WSW 20:35:54 80° NNW 20:45:15 10° NE visible
11 Dec - 22:32:43 10° W 22:41:39 44° N 22:50:21 10° ENE visible
12 Dec - 00:39:08 10° WNW 00:48:04 48° NNE 00:56:52 10° E visible
12 Dec - 02:44:08 10° WNW 02:53:21 80° SW 03:02:33 10° SE visible
12 Dec - 04:50:25 10° W 04:56:59 22° SW 05:03:37 10° S visible
12 Dec - 17:58:22 10° S 18:06:37 32° SE 18:14:37 10° ENE visible
12 Dec - 20:00:58 10° WSW 20:10:42 85° NNW 20:20:06 10° NE visible
12 Dec - 22:07:21 10° W 22:16:21 45° NNW 22:25:07 10° ENE visible
13 Dec - 00:13:54 10° WNW 00:22:48 47° NNE 00:31:34 10° E night (unlit)
13 Dec - 02:18:57 10° WNW 02:28:12 86° SW 02:37:25 10° SE visible
13 Dec - 04:24:57 10° WNW 04:31:56 25° SW 04:38:59 10° S visible
13 Dec - 17:33:35 10° S 17:41:32 29° SE 17:49:15 10° ENE visible
13 Dec - 19:35:44 10° SW 19:45:31 90° SE 19:54:56 10° ENE visible
13 Dec - 21:41:59 10° W 21:51:04 46° NNW 21:59:54 10° ENE visible
13 Dec - 23:48:38 10° WNW 23:57:32 46° NNE 00:06:16 10° E night (unlit)
14 Dec - 01:53:47 10° WNW 02:03:03 89° NE 02:12:16 10° SE visible
14 Dec - 03:59:32 10° WNW 04:06:54 28° SW 04:14:18 10° S visible
14 Dec - 17:08:50 10° S 17:16:28 26° SE 17:23:51 10° ENE visible
14 Dec - 19:10:32 10° SW 19:20:20 85° SE 19:29:47 10° ENE visible
14 Dec - 21:16:38 10° W 21:25:48 48° NNW 21:34:41 10° ENE visible
14 Dec - 23:23:23 10° WNW 23:32:16 45° N 23:40:57 10° E night (unlit)
15 Dec - 01:28:36 10° NW 01:37:53 84° NNE 01:47:06 10° ESE visible
15 Dec - 03:34:10 10° WNW 03:41:50 31° SW 03:49:33 10° S visible
15 Dec - 16:44:10 10° S 16:51:22 23° SE 16:58:24 10° E visible
15 Dec - 18:45:22 10° SW 18:55:11 80° SE 19:04:37 10° ENE visible
15 Dec - 20:51:16 10° W 21:00:31 49° NNW 21:09:29 10° ENE visible
15 Dec - 22:58:05 10° WNW 23:06:58 44° N 23:15:38 10° E night (unlit)
16 Dec - 01:03:25 10° NW 01:12:43 79° NNE 01:21:55 10° ESE visible
16 Dec - 03:08:50 10° WNW 03:16:47 34° SW 03:24:45 10° S visible
16 Dec - 16:19:34 10° S 16:26:18 21° SE 16:32:53 10° E daylight
16 Dec - 18:20:12 10° SW 18:30:00 74° SE 18:39:27 10° ENE visible
16 Dec - 20:25:54 10° W 20:35:15 51° NNW 20:44:18 10° ENE visible
16 Dec - 22:32:48 10° WNW 22:41:41 43° N 22:50:20 10° ENE visible
17 Dec - 00:38:14 10° NW 00:47:32 75° NNE 00:56:43 10° ESE night (unlit)
17 Dec - 02:43:31 10° WNW 02:51:43 38° SW 02:59:54 10° SSE visible
17 Dec - 15:55:04 10° SSE 16:01:14 18° SE 16:07:16 10° E daylight
17 Dec - 17:55:04 10° SW 18:04:52 69° SE 18:14:16 10° ENE visible
17 Dec - 20:00:32 10° W 20:09:59 54° NNW 20:19:06 10° ENE visible
17 Dec - 22:07:29 10° WNW 22:16:23 42° N 22:25:03 10° ENE visible
18 Dec - 00:13:02 10° NW 00:22:21 70° NNE 00:31:30 10° ESE night (unlit)
18 Dec - 02:18:14 10° WNW 02:26:39 42° SW 02:35:02 10° SSE visible
18 Dec - 15:30:42 10° SSE 15:36:11 16° ESE 15:41:33 10° E daylight
18 Dec - 17:29:58 10° SW 17:39:42 64° SE 17:49:05 10° ENE visible
18 Dec - 19:35:11 10° W 19:44:43 56° NNW 19:53:55 10° NE visible
18 Dec - 21:42:10 10° WNW 21:51:05 42° N 21:59:45 10° ENE visible
18 Dec - 23:47:50 10° NW 23:57:09 67° NNE 00:06:16 10° ESE night (unlit)
19 Dec - 01:52:58 10° WNW 02:01:34 46° SW 02:10:08 10° SSE visible
19 Dec - 15:06:31 10° SSE 15:11:07 14° ESE 15:15:39 10° E daylight
19 Dec - 17:04:53 10° SSW 17:14:34 59° SE 17:23:53 10° ENE visible
19 Dec - 19:09:50 10° WSW 19:19:28 59° NNW 19:28:45 10° NE visible
19 Dec - 21:16:50 10° WNW 21:25:47 42° N 21:34:27 10° ENE visible
19 Dec - 23:22:38 10° NW 23:31:57 63° NNE 23:41:02 10° ESE night (unlit)
20 Dec - 01:27:43 10° WNW 01:36:29 50° SW 01:45:11 10° SSE night (unlit)
20 Dec - 14:42:40 10° SE 14:46:04 12° ESE 14:49:26 10° ESE daylight
20 Dec - 16:39:50 10° SSW 16:49:25 55° SE 16:58:40 10° ENE visible
20 Dec - 18:44:30 10° WSW 18:54:13 62° NNW 19:03:35 10° NE visible
20 Dec - 20:51:29 10° WNW 21:00:29 42° N 21:09:11 10° ENE visible
20 Dec - 22:57:26 10° NW 23:06:43 60° NNE 23:15:46 10° ESE night (unlit)
